Погода в Новом Егорлыке

Россия / Ростовская область     46°23′30″N   41°52′38″E
темп.,
°C
ветер,
м/с
пор.,
м/с
влажн.,
%
обл.,
%
осадки,
мм/ч
давл.,
гПа
погр.,
м
2 декабря, чт
чт200:00+5з7137993 0.3 10071325
03:00+3з612808 0.4 1009701
06:00+2зюз511885 0.1 1012548
09:00+2зюз511825 0.1 1015656
12:00+6з696252 0.0 10171246
15:00+6з58555 0.0 10181252
18:00+4юз35705 0.0 101970
21:00+3ююз48765 0.0 1019141
3 декабря, пт
пт300:00+4ююз498495 0.0 1019166
03:00+3ю38855 0.0 1019137
06:00+3ю3773100 0.0 1020109
09:00+4ююв3966100 0.0 1020206
12:00+8ююв4751100 0.0 1019362
15:00+9юв4852100 0.0 1019367
18:00+5юв4106997 0.0 1019187
21:00+4юв410810 0.0 1019181
4 декабря, сб
сб400:00+4ююв36815 0.0 101988
03:00+4ююв3466100 0.0 101851
06:00+6ююв3555100 0.0 101890
09:00+7ююв475187 0.0 1017141
12:00+10ю3641100 0.0 1016223
15:00+11в1143100 0.0 101510
18:00+9юв224851 0.0 101511
21:00+8юв3353100 0.0 101518
5 декабря, вс
вс500:00+7вюв1158100 0.0 101410
03:00+7всв2263100 0.0 101414
06:00+6в2366100 0.0 101438
09:00+7вюв4663100 0.0 101592
12:00+10ююв2554100 0.2 1015199
15:00+10ссз1264100 0.4 101580
18:00+8вюв226499 0.0 101727
21:00+7вюв346268 0.0 101754
6 декабря, пн
пн600:00+7юв346592 0.0 101862
03:00+7юв346674 0.0 101953
06:00+6юв3464100 0.0 101957
09:00+7юв4964100 0.0 1020177
12:00+11юв575380 0.0 1021357
15:00+12юв585451 0.0 1021341
18:00+9вюв4969100 0.0 1022195
21:00+8юв41080100 0.0 1023231